| time (UTC) | temp F | wind direction | speed MPH | gust MPH | rain 1hr in | rain 24hr in | rain mn in | humidity % | barometer mb |
| 20260905191011 | 77 | 320 | 0.0 | 0.0 | 0.00 | 0.00 | 0.08 | 56 | 1006.1 |
| 20260905190513 | 77 | 299 | 0.0 | 0.0 | 0.00 | 0.00 | 0.08 | 56 | 1006.1 |
| 20260905190001 | 77 | 299 | 0.0 | 0.0 | 0.00 | 0.00 | 0.08 | 55 | 1006.1 |
| 20260905185553 | 77 | 299 | 0.0 | 0.0 | 0.00 | 0.00 | 0.08 | 55 | 1006.2 |
| 20260905185057 | 78 | 299 | 0.0 | 0.0 | 0.00 | 0.00 | 0.08 | 54 | 1006.2 |
| 20260905184604 | 78 | 299 | 0.0 | 0.0 | 0.00 | 0.00 | 0.08 | 52 | 1006.2 |
| 20260905184104 | 78 | 299 | 0.0 | 0.0 | 0.00 | 0.00 | 0.08 | 52 | 1006.2 |
| 20260905183552 | 78 | 299 | 0.0 | 0.0 | 0.00 | 0.00 | 0.08 | 54 | 1006.2 |
| 20260905183058 | 78 | 298 | 0.0 | 0.0 | 0.00 | 0.00 | 0.08 | 54 | 1006.2 |
| 20260905182558 | 77 | 299 | 0.0 | 0.0 | 0.00 | 0.00 | 0.08 | 53 | 1006.3 |
| 20260905182101 | 77 | 299 | 0.0 | 0.0 | 0.00 | 0.00 | 0.08 | 54 | 1006.3 |
| 20260905181607 | 77 | 298 | 0.0 | 0.0 | 0.00 | 0.00 | 0.08 | 54 | 1006.3 |
| 20260905181003 | 78 | 298 | 0.0 | 0.0 | 0.00 | 0.00 | 0.08 | 53 | 1006.3 |
| 20260905180504 | 78 | 294 | 0.0 | 0.0 | 0.00 | 0.00 | 0.08 | 52 | 1006.3 |
| 20260905180008 | 78 | 294 | 0.0 | 0.0 | 0.00 | 0.00 | 0.08 | 51 | 1006.3 |
| 20260905175602 | 78 | 294 | 0.0 | 0.0 | 0.00 | 0.00 | 0.08 | 52 | 1006.4 |
| 20260905175105 | 77 | 294 | 0.0 | 0.0 | 0.00 | 0.00 | 0.07 | 54 | 1006.4 |
| 20260905174504 | 77 | 280 | 0.0 | 0.0 | 0.00 | 0.00 | 0.07 | 54 | 1006.4 |
| 20260905174005 | 77 | 280 | 0.0 | 0.0 | 0.00 | 0.00 | 0.07 | 53 | 1006.6 |
| 20260905173509 | 77 | 294 | 0.0 | 0.0 | 0.00 | 0.00 | 0.07 | 55 | 1006.6 |
| 20260905173101 | 77 | 294 | 0.0 | 0.0 | 0.00 | 0.00 | 0.07 | 55 | 1006.6 |
| 20260905172605 | 77 | 311 | 0.0 | 0.0 | 0.00 | 0.00 | 0.07 | 58 | 1006.6 |
| 20260905172004 | 77 | 311 | 0.0 | 0.0 | 0.00 | 0.00 | 0.07 | 57 | 1006.6 |
| 20260905171512 | 77 | 311 | 0.0 | 0.0 | 0.00 | 0.00 | 0.07 | 55 | 1006.6 |
| 20260905171102 | 77 | 311 | 0.0 | 0.0 | 0.00 | 0.00 | 0.07 | 56 | 1006.8 |
| 20260905170604 | 77 | 311 | 0.0 | 0.0 | 0.00 | 0.00 | 0.07 | 56 | 1006.8 |
| 20260905170117 | 77 | 311 | 0.0 | 0.0 | 0.00 | 0.00 | 0.07 | 53 | 1006.8 |
| 20260905165507 | 77 | 298 | 0.0 | 0.0 | 0.00 | 0.00 | 0.07 | 52 | 1006.8 |
| 20260905165058 | 77 | 309 | 0.0 | 0.0 | 0.00 | 0.00 | 0.07 | 54 | 1006.8 |
| 20260905164601 | 77 | 312 | 0.0 | 0.0 | 0.00 | 0.00 | 0.07 | 54 | 1006.8 |
| 20260905164105 | 77 | 308 | 0.0 | 0.0 | 0.00 | 0.00 | 0.07 | 55 | 1006.9 |
| 20260905163502 | 77 | 291 | 0.0 | 0.0 | 0.00 | 0.00 | 0.07 | 56 | 1006.9 |
| 20260905163055 | 77 | 289 | 0.0 | 0.0 | 0.00 | 0.00 | 0.07 | 56 | 1006.9 |
| 20260905162601 | 77 | 261 | 0.0 | 0.0 | 0.00 | 0.00 | 0.07 | 55 | 1007.1 |
| 20260905162103 | 77 | 298 | 0.0 | 0.0 | 0.00 | 0.00 | 0.07 | 58 | 1007.1 |
| 20260905161605 | 77 | 299 | 0.0 | 0.0 | 0.00 | 0.00 | 0.07 | 61 | 1007.1 |
| 20260905161003 | 76 | 299 | 0.0 | 0.0 | 0.00 | 0.00 | 0.06 | 61 | 1007.3 |
| 20260905160506 | 76 | 316 | 0.0 | 0.0 | 0.00 | 0.00 | 0.06 | 62 | 1007.3 |
| 20260905160027 | 76 | 318 | 0.0 | 0.0 | 0.00 | 0.00 | 0.06 | 62 | 1007.3 |
| 20260905155513 | 76 | 318 | 0.0 | 0.0 | 0.00 | 0.00 | 0.06 | 63 | 1007.3 |
| 20260905155106 | 76 | 316 | 0.0 | 0.0 | 0.00 | 0.00 | 0.06 | 63 | 1007.3 |
| 20260905154503 | 75 | 318 | 0.0 | 0.0 | 0.00 | 0.00 | 0.06 | 65 | 1007.3 |
| 20260905154005 | 75 | 318 | 0.0 | 0.0 | 0.00 | 0.00 | 0.06 | 64 | 1007.4 |
| 20260905153600 | 75 | 318 | 0.0 | 0.0 | 0.00 | 0.00 | 0.06 | 66 | 1007.4 |
| 20260905153002 | 75 | 318 | 0.0 | 0.0 | 0.00 | 0.00 | 0.06 | 64 | 1007.4 |
| 20260905152507 | 75 | 316 | 0.0 | 0.0 | 0.00 | 0.00 | 0.06 | 65 | 1007.3 |
| 20260905152009 | 74 | 316 | 0.0 | 0.0 | 0.00 | 0.00 | 0.06 | 67 | 1007.3 |
| 20260905151603 | 74 | 318 | 0.0 | 0.0 | 0.00 | 0.00 | 0.06 | 66 | 1007.3 |
| 20260905151106 | 74 | 318 | 0.0 | 0.0 | 0.00 | 0.00 | 0.06 | 65 | 1007.1 |
| 20260905150502 | 74 | 288 | 0.0 | 0.0 | 0.00 | 0.00 | 0.06 | 65 | 1007.1 |
| 20260905150007 | 74 | 288 | 0.0 | 0.0 | 0.00 | 0.00 | 0.06 | 65 | 1007.1 |
| 20260905145508 | 73 | 335 | 0.0 | 0.0 | 0.00 | 0.00 | 0.06 | 67 | 1006.9 |
| 20260905145102 | 73 | 298 | 0.0 | 0.0 | 0.00 | 0.00 | 0.06 | 68 | 1006.9 |
| 20260905144606 | 73 | 298 | 0.0 | 0.0 | 0.00 | 0.00 | 0.06 | 69 | 1006.9 |
| 20260905144002 | 72 | 301 | 0.0 | 0.0 | 0.00 | 0.00 | 0.05 | 69 | 1006.9 |
| 20260905143505 | 72 | 287 | 0.0 | 0.0 | 0.00 | 0.00 | 0.05 | 71 | 1006.9 |
| 20260905143100 | 72 | 253 | 0.0 | 0.0 | 0.00 | 0.00 | 0.05 | 74 | 1006.9 |
| 20260905142603 | 72 | 291 | 0.0 | 0.0 | 0.00 | 0.00 | 0.05 | 74 | 1007.1 |
| 20260905142004 | 71 | 291 | 0.0 | 0.0 | 0.00 | 0.00 | 0.05 | 75 | 1007.1 |
| 20260905141506 | 71 | 291 | 0.0 | 0.0 | 0.00 | 0.00 | 0.05 | 75 | 1007.1 |
| 20260905141104 | 71 | 291 | 0.0 | 0.0 | 0.00 | 0.00 | 0.05 | 75 | 1007.1 |
| 20260905140604 | 71 | 291 | 0.0 | 0.0 | 0.00 | 0.00 | 0.05 | 74 | 1007.1 |
| 20260905140005 | 71 | 291 | 0.0 | 0.0 | 0.00 | 0.00 | 0.05 | 75 | 1007.1 |
| 20260905135507 | 71 | 291 | 0.0 | 0.0 | 0.00 | 0.00 | 0.05 | 75 | 1007.0 |
| 20260905135100 | 71 | 291 | 0.0 | 0.0 | 0.00 | 0.00 | 0.05 | 75 | 1007.0 |
| 20260905134608 | 71 | 291 | 0.0 | 0.0 | 0.00 | 0.00 | 0.05 | 76 | 1007.0 |
| 20260905134105 | 70 | 291 | 0.0 | 0.0 | 0.00 | 0.00 | 0.05 | 77 | 1006.9 |
| 20260905133504 | 70 | 291 | 0.0 | 0.0 | 0.00 | 0.00 | 0.05 | 77 | 1006.9 |
| 20260905133008 | 70 | 291 | 0.0 | 0.0 | 0.00 | 0.00 | 0.05 | 79 | 1006.9 |
| 20260905132511 | 70 | 291 | 0.0 | 0.0 | 0.00 | 0.00 | 0.05 | 80 | 1006.8 |
| 20260905132017 | 70 | 291 | 0.0 | 0.0 | 0.00 | 0.00 | 0.05 | 81 | 1006.8 |
| 20260905131501 | 70 | 291 | 0.0 | 0.0 | 0.00 | 0.00 | 0.05 | 81 | 1006.8 |
| 20260905131055 | 70 | 291 | 0.0 | 0.0 | 0.00 | 0.00 | 0.05 | 82 | 1006.7 |
| 20260905130558 | 70 | 291 | 0.0 | 0.0 | 0.00 | 0.00 | 0.05 | 82 | 1006.7 |
| 20260905130101 | 70 | 291 | 0.0 | 0.0 | 0.00 | 0.00 | 0.05 | 82 | 1006.7 |
| 20260905125604 | 70 | 291 | 0.0 | 0.0 | 0.00 | 0.00 | 0.05 | 82 | 1006.8 |
| 20260905125055 | 70 | 291 | 0.0 | 0.0 | 0.00 | 0.00 | 0.05 | 82 | 1006.8 |
| 20260905124603 | 70 | 291 | 0.0 | 0.0 | 0.00 | 0.00 | 0.05 | 81 | 1006.8 |
| 20260905124002 | 69 | 291 | 0.0 | 0.0 | 0.00 | 0.00 | 0.05 | 80 | 1006.9 |
| 20260905123600 | 69 | 291 | 0.0 | 0.0 | 0.00 | 0.00 | 0.05 | 80 | 1006.9 |
| 20260905123105 | 69 | 291 | 0.0 | 0.0 | 0.00 | 0.00 | 0.05 | 81 | 1006.9 |
| 20260905122501 | 69 | 291 | 0.0 | 0.0 | 0.00 | 0.00 | 0.04 | 82 | 1006.8 |
| 20260905122004 | 69 | 291 | 0.0 | 0.0 | 0.00 | 0.00 | 0.04 | 83 | 1006.8 |
| 20260905121558 | 69 | 291 | 0.0 | 0.0 | 0.00 | 0.00 | 0.04 | 83 | 1006.8 |
| 20260905121109 | 69 | 291 | 0.0 | 0.0 | 0.00 | 0.00 | 0.04 | 82 | 1006.8 |
| 20260905120503 | 69 | 291 | 0.0 | 0.0 | 0.00 | 0.00 | 0.04 | 82 | 1006.8 |
| 20260905120006 | 69 | 291 | 0.0 | 0.0 | 0.00 | 0.00 | 0.04 | 82 | 1006.8 |
| 20260905115603 | 69 | 291 | 0.0 | 0.0 | 0.00 | 0.00 | 0.04 | 82 | 1006.7 |
| 20260905115103 | 69 | 291 | 0.0 | 0.0 | 0.00 | 0.00 | 0.04 | 82 | 1006.7 |
| 20260905114605 | 69 | 291 | 0.0 | 0.0 | 0.00 | 0.00 | 0.04 | 83 | 1006.7 |
| 20260905114003 | 69 | 291 | 0.0 | 0.0 | 0.00 | 0.00 | 0.04 | 84 | 1006.5 |
| 20260905113600 | 69 | 291 | 0.0 | 0.0 | 0.00 | 0.00 | 0.04 | 85 | 1006.5 |
| 20260905113106 | 69 | 291 | 0.0 | 0.0 | 0.00 | 0.00 | 0.04 | 87 | 1006.5 |
| 20260905112505 | 69 | 291 | 0.0 | 0.0 | 0.00 | 0.00 | 0.04 | 88 | 1006.2 |
| 20260905112059 | 69 | 291 | 0.0 | 0.0 | 0.00 | 0.00 | 0.04 | 89 | 1006.2 |
| 20260905111647 | 69 | 291 | 0.0 | 0.0 | 0.00 | 0.00 | 0.04 | 89 | 1006.2 |
| 20260905111002 | 69 | 291 | 0.0 | 0.0 | 0.00 | 0.00 | 0.04 | 89 | 1006.3 |
| 20260905110601 | 69 | 291 | 0.0 | 0.0 | 0.00 | 0.00 | 0.04 | 89 | 1006.3 |
| 20260905110104 | 69 | 291 | 0.0 | 0.0 | 0.00 | 0.00 | 0.04 | 89 | 1006.3 |
| 20260905105501 | 69 | 291 | 0.0 | 0.0 | 0.00 | 0.00 | 0.04 | 89 | 1006.0 |
| 20260905105005 | 69 | 291 | 0.0 | 0.0 | 0.00 | 0.00 | 0.04 | 89 | 1006.0 |
| 20260905104517 | 69 | 291 | 0.0 | 0.0 | 0.00 | 0.00 | 0.03 | 90 | 1006.0 |
| 20260905104101 | 69 | 291 | 0.0 | 0.0 | 0.00 | 0.00 | 0.03 | 90 | 1005.9 |
| 20260905103606 | 69 | 291 | 0.0 | 0.0 | 0.00 | 0.00 | 0.03 | 90 | 1005.9 |
| 20260905103004 | 69 | 291 | 0.0 | 0.0 | 0.00 | 0.00 | 0.03 | 90 | 1005.9 |
| 20260905102504 | 69 | 291 | 0.0 | 0.0 | 0.00 | 0.00 | 0.03 | 90 | 1005.8 |
| 20260905102058 | 69 | 291 | 0.0 | 0.0 | 0.00 | 0.00 | 0.03 | 90 | 1005.8 |
| 20260905101602 | 69 | 291 | 0.0 | 0.0 | 0.00 | 0.00 | 0.03 | 91 | 1005.8 |
| 20260905101106 | 69 | 291 | 0.0 | 0.0 | 0.00 | 0.00 | 0.03 | 91 | 1005.7 |
| 20260905100501 | 69 | 291 | 0.0 | 0.0 | 0.00 | 0.00 | 0.03 | 91 | 1005.7 |
| 20260905100107 | 69 | 291 | 0.0 | 0.0 | 0.00 | 0.00 | 0.03 | 91 | 1005.7 |
| 20260905095600 | 69 | 291 | 0.0 | 0.0 | 0.00 | 0.00 | 0.03 | 91 | 1005.7 |
| 20260905095006 | 69 | 291 | 0.0 | 0.0 | 0.00 | 0.00 | 0.03 | 92 | 1005.7 |
| 20260905094600 | 69 | 291 | 0.0 | 0.0 | 0.00 | 0.00 | 0.03 | 92 | 1005.7 |
| 20260905094108 | 69 | 291 | 0.0 | 0.0 | 0.00 | 0.00 | 0.03 | 93 | 1005.7 |
| 20260905093507 | 69 | 291 | 0.0 | 0.0 | 0.00 | 0.00 | 0.03 | 94 | 1005.7 |
| 20260905093007 | 69 | 291 | 0.0 | 0.0 | 0.00 | 0.00 | 0.03 | 94 | 1005.7 |
| 20260905092558 | 70 | 291 | 0.0 | 0.0 | 0.00 | 0.00 | 0.03 | 94 | 1005.8 |
| 20260905092101 | 70 | 291 | 0.0 | 0.0 | 0.00 | 0.00 | 0.03 | 94 | 1005.8 |
| 20260905091610 | 70 | 291 | 0.0 | 0.0 | 0.00 | 0.00 | 0.03 | 95 | 1005.8 |
| 20260905091002 | 70 | 291 | 0.0 | 0.0 | 0.00 | 0.00 | 0.03 | 95 | 1005.7 |
| 20260905090505 | 70 | 291 | 0.0 | 0.0 | 0.00 | 0.00 | 0.03 | 95 | 1005.7 |
| 20260905090100 | 70 | 291 | 0.0 | 0.0 | 0.00 | 0.00 | 0.03 | 95 | 1005.7 |
| 20260905085602 | 70 | 291 | 0.0 | 0.0 | 0.00 | 0.00 | 0.03 | 95 | 1005.6 |
| 20260905085105 | 70 | 291 | 0.0 | 0.0 | 0.00 | 0.00 | 0.03 | 95 | 1005.6 |
| 20260905084501 | 70 | 291 | 0.0 | 0.0 | 0.00 | 0.00 | 0.03 | 95 | 1005.6 |
| 20260905084008 | 70 | 291 | 0.0 | 0.0 | 0.00 | 0.00 | 0.03 | 95 | 1005.4 |
| 20260905083559 | 70 | 291 | 0.0 | 0.0 | 0.00 | 0.00 | 0.03 | 95 | 1005.4 |
| 20260905083101 | 70 | 291 | 0.0 | 0.0 | 0.00 | 0.00 | 0.03 | 95 | 1005.4 |
| 20260905082604 | 70 | 291 | 0.0 | 0.0 | 0.00 | 0.00 | 0.03 | 95 | 1005.6 |
| 20260905082006 | 70 | 291 | 0.0 | 0.0 | 0.00 | 0.00 | 0.03 | 95 | 1005.6 |
| 20260905081605 | 70 | 291 | 0.0 | 0.0 | 0.00 | 0.00 | 0.02 | 95 | 1005.6 |
| 20260905081000 | 70 | 291 | 0.0 | 0.0 | 0.00 | 0.00 | 0.02 | 95 | 1005.6 |
| 20260905080503 | 70 | 291 | 0.0 | 0.0 | 0.00 | 0.00 | 0.02 | 94 | 1005.6 |
| 20260905075601 | 70 | 291 | 0.0 | 0.0 | 0.00 | 0.00 | 0.02 | 94 | 1005.6 |
| 20260905075103 | 70 | 291 | 0.0 | 0.0 | 0.00 | 0.00 | 0.02 | 94 | 1005.6 |
| 20260905074502 | 70 | 291 | 0.0 | 0.0 | 0.00 | 0.00 | 0.02 | 94 | 1005.6 |
| 20260905074008 | 70 | 291 | 0.0 | 0.0 | 0.00 | 0.00 | 0.02 | 94 | 1005.6 |
| 20260905073509 | 70 | 291 | 0.0 | 0.0 | 0.00 | 0.00 | 0.02 | 94 | 1005.6 |
| 20260905073016 | 70 | 291 | 0.0 | 0.0 | 0.00 | 0.00 | 0.02 | 94 | 1005.6 |
| 20260905072605 | 70 | 291 | 0.0 | 0.0 | 0.00 | 0.00 | 0.02 | 94 | 1005.7 |
| 20260905072002 | 70 | 291 | 0.0 | 0.0 | 0.00 | 0.00 | 0.02 | 93 | 1005.7 |
| 20260905071509 | 71 | 291 | 0.0 | 0.0 | 0.00 | 0.00 | 0.02 | 93 | 1005.7 |
| 20260905071009 | 71 | 291 | 0.0 | 0.0 | 0.00 | 0.00 | 0.02 | 93 | 1005.6 |
| 20260905070512 | 71 | 291 | 0.0 | 0.0 | 0.00 | 0.00 | 0.02 | 93 | 1005.6 |
| 20260905070108 | 71 | 291 | 0.0 | 0.0 | 0.00 | 0.00 | 0.02 | 93 | 1005.6 |
| 20260905065555 | 71 | 291 | 0.0 | 0.0 | 0.00 | 0.00 | 0.02 | 92 | 1005.7 |
| 20260905065104 | 71 | 291 | 0.0 | 0.0 | 0.00 | 0.00 | 0.01 | 92 | 1005.7 |
| 20260905064601 | 71 | 291 | 0.0 | 0.0 | 0.00 | 0.00 | 0.01 | 92 | 1005.7 |
| 20260905064106 | 71 | 291 | 0.0 | 0.0 | 0.00 | 0.00 | 0.01 | 92 | 1005.7 |
| 20260905063504 | 71 | 291 | 0.0 | 0.0 | 0.00 | 0.00 | 0.01 | 92 | 1005.7 |
| 20260905063103 | 71 | 291 | 0.0 | 0.0 | 0.00 | 0.00 | 0.01 | 91 | 1005.7 |
| 20260905062605 | 72 | 291 | 0.0 | 0.0 | 0.00 | 0.00 | 0.01 | 91 | 1005.8 |
| 20260905062002 | 72 | 291 | 0.0 | 0.0 | 0.00 | 0.00 | 0.01 | 91 | 1005.8 |
| 20260905061505 | 72 | 291 | 0.0 | 0.0 | 0.00 | 0.00 | 0.01 | 91 | 1005.8 |
| 20260905061007 | 72 | 291 | 0.0 | 0.0 | 0.00 | 0.00 | 0.01 | 91 | 1006.0 |
| 20260905060601 | 72 | 291 | 0.0 | 0.0 | 0.00 | 0.00 | 0.01 | 91 | 1006.0 |
| 20260905060105 | 72 | 291 | 0.0 | 0.0 | 0.00 | 0.00 | 0.01 | 91 | 1006.0 |
| 20260905055501 | 72 | 291 | 0.0 | 0.0 | 0.00 | 0.00 | 0.01 | 91 | 1006.0 |
| 20260905055007 | 72 | 291 | 0.0 | 0.0 | 0.00 | 0.00 | 0.01 | 91 | 1006.0 |
| 20260905054601 | 72 | 291 | 0.0 | 0.0 | 0.00 | 0.00 | 0.01 | 91 | 1006.0 |
| 20260905054104 | 72 | 291 | 0.0 | 0.0 | 0.00 | 0.00 | 0.01 | 91 | 1006.1 |
| 20260905053501 | 72 | 291 | 0.0 | 0.0 | 0.00 | 0.00 | 0.01 | 91 | 1006.1 |
| 20260905053101 | 72 | 291 | 0.0 | 0.0 | 0.00 | 0.00 | 0.01 | 92 | 1006.1 |
| 20260905052558 | 72 | 291 | 0.0 | 0.0 | 0.00 | 0.00 | 0.01 | 92 | 1006.2 |
| 20260905052101 | 73 | 291 | 0.0 | 0.0 | 0.00 | 0.00 | 0.01 | 92 | 1006.2 |
| 20260905051605 | 73 | 291 | 0.0 | 0.0 | 0.00 | 0.00 | 0.01 | 92 | 1006.2 |
| 20260905051052 | 73 | 291 | 0.0 | 0.0 | 0.00 | 0.00 | 0.01 | 92 | 1006.2 |
| 20260905050555 | 73 | 291 | 0.0 | 0.0 | 0.00 | 0.00 | 0.01 | 93 | 1006.2 |
| 20260905050058 | 73 | 291 | 0.0 | 0.0 | 0.00 | 0.00 | 0.01 | 94 | 1006.2 |
| 20260905045602 | 73 | 291 | 0.0 | 0.0 | 0.00 | 0.00 | 0.01 | 94 | 1006.4 |
| 20260905045053 | 74 | 291 | 0.0 | 0.0 | 0.00 | 0.00 | 0.01 | 94 | 1006.4 |
| 20260905044558 | 74 | 291 | 0.0 | 0.0 | 0.00 | 0.00 | 0.01 | 94 | 1006.4 |
| 20260905044056 | 74 | 291 | 0.0 | 0.0 | 0.00 | 0.00 | 0.01 | 94 | 1006.5 |
| 20260905043559 | 74 | 291 | 0.0 | 0.0 | 0.00 | 0.00 | 0.00 | 94 | 1006.5 |
| 20260905043103 | 74 | 291 | 0.0 | 0.0 | 0.00 | 0.00 | 0.00 | 94 | 1006.5 |
| 20260905042551 | 74 | 291 | 0.0 | 0.0 | 0.00 | 0.00 | 0.00 | 93 | 1006.5 |
| 20260905042054 | 74 | 291 | 0.0 | 0.0 | 0.00 | 0.00 | 0.00 | 93 | 1006.5 |
| 20260905041558 | 74 | 291 | 0.0 | 0.0 | 0.00 | 0.00 | 0.00 | 93 | 1006.5 |
| 20260905041101 | 74 | 291 | 0.0 | 0.0 | 0.00 | 0.00 | 0.00 | 93 | 1006.5 |
| 20260905040551 | 74 | 291 | 0.0 | 0.0 | 0.00 | 0.00 | 0.00 | 93 | 1006.5 |
| 20260905040051 | 74 | 291 | 0.0 | 0.0 | 0.00 | 0.00 | 0.00 | 93 | 1006.5 |
| 20260905035554 | 74 | 291 | 0.0 | 0.0 | 0.00 | 0.00 | 0.16 | 93 | 1006.4 |
| 20260905035057 | 74 | 291 | 0.0 | 0.0 | 0.00 | 0.00 | 0.16 | 93 | 1006.4 |
| 20260905034552 | 74 | 291 | 0.0 | 0.0 | 0.00 | 0.00 | 0.16 | 93 | 1006.4 |
| 20260905034057 | 74 | 291 | 0.0 | 0.0 | 0.00 | 0.00 | 0.16 | 93 | 1006.3 |
| 20260905033603 | 74 | 291 | 0.0 | 0.0 | 0.00 | 0.00 | 0.16 | 93 | 1006.3 |
| 20260905033003 | 74 | 291 | 0.0 | 0.0 | 0.00 | 0.00 | 0.16 | 94 | 1006.3 |
| 20260905032506 | 74 | 291 | 0.0 | 0.0 | 0.00 | 0.00 | 0.15 | 93 | 1006.4 |
| 20260905032009 | 74 | 291 | 0.0 | 0.0 | 0.00 | 0.00 | 0.15 | 93 | 1006.4 |
| 20260905031604 | 74 | 291 | 0.0 | 0.0 | 0.00 | 0.00 | 0.15 | 93 | 1006.4 |
| 20260905031104 | 74 | 291 | 0.0 | 0.0 | 0.00 | 0.00 | 0.15 | 93 | 1006.4 |
| 20260905030501 | 74 | 291 | 0.0 | 0.0 | 0.00 | 0.00 | 0.15 | 93 | 1006.4 |
| 20260905030005 | 74 | 291 | 0.0 | 0.0 | 0.00 | 0.00 | 0.15 | 93 | 1006.4 |
| 20260905025507 | 74 | 291 | 0.0 | 0.0 | 0.00 | 0.00 | 0.15 | 93 | 1006.3 |
| 20260905025101 | 74 | 291 | 0.0 | 0.0 | 0.00 | 0.00 | 0.15 | 93 | 1006.3 |
| 20260905024550 | 74 | 291 | 0.0 | 0.0 | 0.00 | 0.00 | 0.15 | 93 | 1006.3 |
| 20260905024103 | 74 | 291 | 0.0 | 0.0 | 0.00 | 0.00 | 0.15 | 93 | 1006.3 |
| 20260905023604 | 74 | 291 | 0.0 | 0.0 | 0.00 | 0.00 | 0.15 | 93 | 1006.3 |
| 20260905023002 | 74 | 291 | 0.0 | 0.0 | 0.00 | 0.00 | 0.15 | 92 | 1006.3 |
| 20260905022504 | 74 | 291 | 0.0 | 0.0 | 0.00 | 0.00 | 0.15 | 92 | 1006.3 |
| 20260905022007 | 74 | 291 | 0.0 | 0.0 | 0.00 | 0.00 | 0.15 | 92 | 1006.3 |
| 20260905021601 | 74 | 291 | 0.0 | 0.0 | 0.00 | 0.00 | 0.15 | 92 | 1006.3 |
| 20260905021105 | 74 | 291 | 0.0 | 0.0 | 0.00 | 0.00 | 0.15 | 92 | 1006.3 |
| 20260905020502 | 74 | 291 | 0.0 | 0.0 | 0.00 | 0.00 | 0.15 | 92 | 1006.3 |
| 20260905020003 | 74 | 291 | 0.0 | 0.0 | 0.00 | 0.00 | 0.15 | 92 | 1006.3 |
| 20260905015558 | 74 | 291 | 0.0 | 0.0 | 0.00 | 0.00 | 0.15 | 92 | 1006.2 |
| 20260905015104 | 74 | 291 | 0.0 | 0.0 | 0.00 | 0.00 | 0.15 | 91 | 1006.2 |
| 20260905014604 | 74 | 291 | 0.0 | 0.0 | 0.00 | 0.00 | 0.15 | 91 | 1006.2 |
| 20260905014002 | 75 | 291 | 0.0 | 0.0 | 0.00 | 0.00 | 0.15 | 91 | 1006.2 |
| 20260905013504 | 75 | 291 | 0.0 | 0.0 | 0.00 | 0.00 | 0.15 | 90 | 1006.2 |
| 20260905013057 | 75 | 291 | 0.0 | 0.0 | 0.00 | 0.00 | 0.15 | 90 | 1006.2 |
| 20260905012600 | 75 | 291 | 0.0 | 0.0 | 0.00 | 0.00 | 0.15 | 90 | 1006.3 |
| 20260905012104 | 75 | 291 | 0.0 | 0.0 | 0.00 | 0.00 | 0.14 | 89 | 1006.3 |
| 20260905011605 | 75 | 291 | 0.0 | 0.0 | 0.00 | 0.00 | 0.14 | 89 | 1006.3 |
| 20260905011054 | 75 | 291 | 0.0 | 0.0 | 0.00 | 0.00 | 0.14 | 89 | 1006.3 |
| 20260905010556 | 75 | 291 | 0.0 | 0.0 | 0.00 | 0.00 | 0.14 | 88 | 1006.3 |
| 20260905010108 | 75 | 291 | 0.0 | 0.0 | 0.00 | 0.00 | 0.14 | 88 | 1006.3 |
| 20260905005603 | 75 | 291 | 0.0 | 0.0 | 0.00 | 0.00 | 0.14 | 88 | 1006.3 |
| 20260905005106 | 75 | 291 | 0.0 | 0.0 | 0.00 | 0.00 | 0.14 | 88 | 1006.3 |
| 20260905004610 | 75 | 291 | 0.0 | 0.0 | 0.00 | 0.00 | 0.14 | 87 | 1006.3 |
| 20260905004057 | 75 | 291 | 0.0 | 0.0 | 0.00 | 0.00 | 0.14 | 87 | 1006.3 |
| 20260905003600 | 76 | 291 | 0.0 | 0.0 | 0.00 | 0.00 | 0.14 | 87 | 1006.3 |
| 20260905003053 | 76 | 291 | 0.0 | 0.0 | 0.00 | 0.00 | 0.14 | 86 | 1006.3 |
| 20260905002559 | 76 | 291 | 0.0 | 0.0 | 0.00 | 0.00 | 0.14 | 86 | 1006.1 |
| 20260905002006 | 76 | 291 | 0.0 | 0.0 | 0.00 | 0.00 | 0.14 | 85 | 1006.1 |
| 20260905001600 | 76 | 291 | 0.0 | 0.0 | 0.00 | 0.00 | 0.14 | 85 | 1006.1 |
| 20260905001103 | 76 | 291 | 0.0 | 0.0 | 0.00 | 0.00 | 0.14 | 85 | 1006.1 |
| 20260905000504 | 76 | 291 | 0.0 | 0.0 | 0.00 | 0.00 | 0.13 | 84 | 1006.1 |
| 20260905000057 | 77 | 291 | 0.0 | 0.0 | 0.00 | 0.00 | 0.13 | 83 | 1006.1 |
| 20260904235600 | 77 | 291 | 0.0 | 0.0 | 0.00 | 0.00 | 0.13 | 82 | 1006.2 |
| 20260904235105 | 77 | 291 | 0.0 | 0.0 | 0.00 | 0.00 | 0.13 | 82 | 1006.2 |
| 20260904234606 | 77 | 291 | 0.0 | 0.0 | 0.00 | 0.00 | 0.13 | 81 | 1006.2 |
| 20260904234005 | 77 | 291 | 0.0 | 0.0 | 0.00 | 0.00 | 0.13 | 81 | 1006.0 |
| 20260904233558 | 77 | 291 | 0.0 | 0.0 | 0.00 | 0.00 | 0.13 | 81 | 1006.0 |
| 20260904233100 | 77 | 291 | 0.0 | 0.0 | 0.00 | 0.00 | 0.13 | 80 | 1006.0 |
| 20260904232603 | 78 | 291 | 0.0 | 0.0 | 0.00 | 0.00 | 0.13 | 79 | 1005.9 |
| 20260904232002 | 78 | 291 | 0.0 | 0.0 | 0.00 | 0.00 | 0.13 | 78 | 1005.9 |
| 20260904231556 | 78 | 291 | 0.0 | 0.0 | 0.00 | 0.00 | 0.13 | 77 | 1005.9 |
| 20260904231059 | 78 | 291 | 0.0 | 0.0 | 0.00 | 0.00 | 0.13 | 77 | 1006.1 |
| 20260904230602 | 78 | 291 | 0.0 | 0.0 | 0.00 | 0.00 | 0.13 | 77 | 1006.1 |
| 20260904230112 | 78 | 291 | 0.0 | 0.0 | 0.00 | 0.00 | 0.13 | 77 | 1006.1 |
| 20260904225504 | 79 | 291 | 0.0 | 0.0 | 0.00 | 0.00 | 0.13 | 77 | 1006.4 |
| 20260904225101 | 79 | 291 | 0.0 | 0.0 | 0.00 | 0.00 | 0.13 | 77 | 1006.4 |
| 20260904224600 | 79 | 291 | 0.0 | 0.0 | 0.00 | 0.00 | 0.13 | 77 | 1006.4 |
| 20260904224104 | 79 | 291 | 0.0 | 0.0 | 0.00 | 0.00 | 0.13 | 77 | 1006.4 |
| 20260904223558 | 79 | 291 | 0.0 | 0.0 | 0.00 | 0.00 | 0.13 | 77 | 1006.4 |
| 20260904223104 | 79 | 291 | 0.0 | 0.0 | 0.00 | 0.00 | 0.13 | 75 | 1006.4 |
| 20260904222607 | 80 | 291 | 0.0 | 0.0 | 0.00 | 0.00 | 0.13 | 75 | 1006.3 |
| 20260904222004 | 80 | 291 | 0.0 | 0.0 | 0.00 | 0.00 | 0.13 | 74 | 1006.3 |
| 20260904221602 | 80 | 291 | 0.0 | 0.0 | 0.00 | 0.00 | 0.12 | 73 | 1006.3 |
| 20260904221100 | 81 | 291 | 0.0 | 0.0 | 0.00 | 0.00 | 0.12 | 71 | 1006.2 |
| 20260904220604 | 81 | 291 | 0.0 | 0.0 | 0.00 | 0.00 | 0.12 | 69 | 1006.2 |
| 20260904220007 | 81 | 291 | 0.0 | 0.0 | 0.00 | 0.00 | 0.12 | 69 | 1006.2 |
| 20260904215557 | 81 | 291 | 0.0 | 0.0 | 0.00 | 0.00 | 0.12 | 67 | 1006.6 |
| 20260904215106 | 81 | 291 | 0.0 | 0.0 | 0.00 | 0.00 | 0.12 | 67 | 1006.6 |
| 20260904214503 | 81 | 291 | 0.0 | 0.0 | 0.00 | 0.00 | 0.12 | 67 | 1006.6 |
| 20260904214056 | 81 | 291 | 0.0 | 0.0 | 0.00 | 0.00 | 0.12 | 66 | 1006.7 |
| 20260904213559 | 81 | 291 | 0.0 | 0.0 | 0.00 | 0.00 | 0.12 | 67 | 1006.7 |
| 20260904213103 | 81 | 291 | 0.0 | 0.0 | 0.00 | 0.00 | 0.12 | 66 | 1006.7 |
| 20260904212607 | 81 | 291 | 0.0 | 0.0 | 0.00 | 0.00 | 0.12 | 66 | 1006.9 |
| 20260904212058 | 81 | 291 | 0.0 | 0.0 | 0.00 | 0.00 | 0.12 | 65 | 1006.9 |
| 20260904211613 | 81 | 291 | 0.0 | 0.0 | 0.00 | 0.00 | 0.12 | 64 | 1006.9 |
| 20260904211010 | 81 | 291 | 0.0 | 0.0 | 0.00 | 0.00 | 0.11 | 64 | 1006.8 |
| 20260904210600 | 82 | 291 | 0.0 | 0.0 | 0.00 | 0.00 | 0.11 | 63 | 1006.8 |
| 20260904210104 | 82 | 291 | 0.0 | 0.0 | 0.00 | 0.00 | 0.11 | 63 | 1006.8 |
| 20260904205607 | 82 | 291 | 0.0 | 0.0 | 0.00 | 0.00 | 0.11 | 62 | 1006.5 |
| 20260904205006 | 82 | 291 | 0.0 | 0.0 | 0.00 | 0.00 | 0.11 | 62 | 1006.5 |
| 20260904204557 | 82 | 291 | 0.0 | 0.0 | 0.00 | 0.00 | 0.11 | 60 | 1006.5 |
| 20260904204106 | 83 | 291 | 0.0 | 0.0 | 0.00 | 0.00 | 0.11 | 60 | 1006.6 |
| 20260904203502 | 83 | 291 | 0.0 | 0.0 | 0.00 | 0.00 | 0.11 | 59 | 1006.6 |
| 20260904203101 | 83 | 291 | 0.0 | 0.0 | 0.00 | 0.00 | 0.11 | 60 | 1006.6 |
| 20260904202559 | 83 | 291 | 0.0 | 0.0 | 0.00 | 0.00 | 0.11 | 60 | 1006.6 |
| 20260904202103 | 83 | 291 | 0.0 | 0.0 | 0.00 | 0.00 | 0.11 | 61 | 1006.6 |
| 20260904201606 | 83 | 291 | 0.0 | 0.0 | 0.00 | 0.00 | 0.11 | 60 | 1006.6 |
| 20260904201003 | 83 | 271 | 0.0 | 0.0 | 0.00 | 0.00 | 0.11 | 60 | 1006.8 |
| 20260904200600 | 83 | 271 | 0.0 | 0.0 | 0.00 | 0.00 | 0.11 | 60 | 1006.8 |
| 20260904200114 | 83 | 298 | 0.0 | 0.0 | 0.00 | 0.00 | 0.11 | 62 | 1006.8 |
| 20260904195604 | 83 | 298 | 0.0 | 0.0 | 0.00 | 0.00 | 0.11 | 63 | 1006.9 |
| 20260904195056 | 82 | 298 | 0.0 | 0.0 | 0.00 | 0.00 | 0.11 | 62 | 1006.9 |
| 20260904194505 | 82 | 298 | 0.0 | 0.0 | 0.00 | 0.00 | 0.10 | 63 | 1006.9 |
| 20260904194057 | 82 | 298 | 0.0 | 0.0 | 0.00 | 0.00 | 0.10 | 62 | 1007.3 |
| 20260904193602 | 82 | 298 | 0.0 | 0.0 | 0.00 | 0.00 | 0.10 | 61 | 1007.3 |
| 20260904193104 | 83 | 298 | 0.0 | 0.0 | 0.00 | 0.00 | 0.10 | 61 | 1007.3 |
| 20260904192501 | 83 | 298 | 0.0 | 0.0 | 0.00 | 0.00 | 0.10 | 61 | 1007.4 |
| 20260904192004 | 83 | 298 | 0.0 | 0.0 | 0.00 | 0.00 | 0.10 | 61 | 1007.4 |
| 20260904191558 | 83 | 298 | 0.0 | 0.0 | 0.00 | 0.00 | 0.10 | 61 | 1007.4 |